Current Version              Previous Version:    01  02  03  04  05  06  07  08  09  10  11  12  13  14  15  16  17  18  19  20  21  22  23  24  25  26  27  28  29  30  
   31  32  33  34  35  36  37  38  39  40  41  42  43  44  45  46  47  48  49  50  51  52  53  54  55  56  57  58  59  60  

[Printable]
128
ASUS44 KFWD 250101
RWRTX
NORTH TEXAS HOURLY WEATHER ROUNDUP
NATIONAL WEATHER SERVICE FORT WORTH TX
800 PM CDT THU JUL 24 2014

NOTE: "FAIR" INDICATES FEW OR NO CLOUDS BELOW 12,000 FEET WITH NO
SIGNIFICANT WEATHER AND/OR OBSTRUCTIONS TO VISIBILITY.

TXZ118-119-250200-
DALLAS/FORT WORTH METROPLEX

CITY           SKY/WX    TMP DP  RH WIND       PRES   REMARKS
DFW AIRPORT    CLEAR     91  64  40 E8        29.94F HX  92
DALLAS LOVE    CLEAR     91  64  40 E10       29.95S HX  92
FTW MEACHAM    CLEAR     93  62  35 E9        29.94S HX  93
DAL-EXECUTIVE  CLEAR     91  67  44 E8        29.95S HX  94
FTW-ALLIANCE   CLEAR     90  64  42 E7        29.94S HX  91
FTW-NAS-JRB    CLEAR     95  58  28 E6        29.98S HX  94
FTW-SPINKS     CLEAR    N/A N/A N/A E5        29.96S
ARLINGTON      CLEAR     92  63  38 E8        29.95R HX  93
ADDISON        CLEAR     90  64  43 E7        29.96S HX  91
MESQUITE       CLEAR     88  66  48 E6        29.96  HX  90
LANCASTER      CLEAR     89  65  46 E6        29.96R HX  91
$$

TXZ091>094-102>105-117-120-121-131>134-250200-
NORTH CENTRAL TEXAS

CITY           SKY/WX    TMP DP  RH WIND       PRES   REMARKS
SHRMAN/DENISON CLEAR     89  66  46 E7        29.98R HX  91
GAINESVILLE    CLEAR     87  67  50 SE6       29.98S HX  90
BOWIE          CLEAR     86  68  54 SE3       29.97S
BRIDGEPORT     CLEAR     89  62  40 SE3       29.97S
DECATUR        CLEAR     88  62  41 E5        29.97S
DENTON         CLEAR     89  65  44 E7        29.95S HX  91
MCKINNEY       CLEAR     87  69  54 E6        29.96S HX  91
GREENVILLE     CLEAR     86  70  58 CALM      29.97S HX  90
ROCKWALL       CLEAR     86  70  58 E6        29.96R HX  90
TERRELL        CLEAR     89  69  51 E8        29.96R HX  93
WAXAHACHIE     CLEAR     89  62  41 E5        29.96S
CLEBURNE       CLEAR     91  63  38 E6        29.97S HX  92
GRANBURY       CLEAR     94  60  31 E7        29.96S HX  94
$$

TXZ083>090-098>101-113>116-127>130-139>142-154-155-250200-
WESTERN NORTH TEXAS

CITY           SKY/WX    TMP DP  RH WIND       PRES   REMARKS
WICHITA FALLS  CLEAR     90  71  53 S7        29.95R HX  96
WF-KICKAPOO    CLEAR     91  68  45 SE6       29.96S HX  95
VERNON         CLEAR     95  65  36 SE9       29.96S HX  97
ABILENE        CLEAR     93  64  38 SE14      29.99S HX  94
ABILENE-DYESS  CLEAR     93  66  41 E9        29.98R HX  96
BRECKENRIDGE   CLEAR     95  60  30 E9        29.95S HX  95
GRAHAM         CLEAR     92  65  41 E7        29.95R HX  94
MINERAL WELLS  CLEAR     91  64  40 E6        29.94S HX  92
STEPHENVILLE   CLEAR     90  62  39 E7        30.00S HX  90
COMANCHE       CLEAR     88  65  45 E7        29.99S HX  90
BROWNWOOD      CLEAR     90  66  45 E12       29.98S HX  92
COLEMAN        CLEAR     91  64  40 SE10      29.99S HX  92
BRADY          CLEAR     90  64  43 E9        30.00R HX  91
$$

TXZ143>147-156>162-174-175-250200-
CENTRAL TEXAS

CITY           SKY/WX    TMP DP  RH WIND       PRES   REMARKS
WACO           CLEAR     91  64  40 E9        29.94R HX  92
WACO-TSTC      CLEAR     91  63  38 E5        29.94R HX  92
WACO-MCGREGOR  CLEAR     91  66  43 SE10      29.95R HX  94
HILLSBORO      CLEAR     90  62  39 E5        29.96R HX  90
CORSICANA      CLEAR     88  68  51 SE6       29.96S HX  91
MEXIA          CLEAR     86  70  59 E6        29.94S HX  91
CAMERON        CLEAR     89  70  53 CALM      29.94S HX  94
TEMPLE         CLEAR     90  64  43 E8        29.96R HX  91
KILLEEN        PTCLDY    88  66  48 E8        29.96S HX  90
KILLEEN-SKYLRK CLEAR     90  66  45 SE9       29.96R HX  92
FORT HOOD      CLEAR     91  67  44 SE7       29.96S HX  94
GATESVILLE     CLEAR     91  66  43 E5        29.98R HX  94
HAMILTON       CLEAR     90  64  42 E6        30.00R HX  91
LAMPASAS       CLEAR     91  71  51 E7        29.97S HX  97
$$

TXZ095>097-106>112-122>126-135>138-148>153-164>167-250200-
EAST TEXAS

CITY           SKY/WX    TMP DP  RH WIND       PRES   REMARKS
PARIS          CLEAR     84  70  61 SE9       29.99R
SULPHUR SPRNGS CLEAR     85  72  64 E6        30.00R HX  90
CLARKSVILLE    CLEAR     82  72  71 SE7       29.98S
MOUNT PLEASANT CLEAR     81  70  68 E3        30.00R
GILMER         CLEAR     81  72  74 CALM      30.00R
MINEOLA        CLEAR     84  73  70 E3        29.98R HX  91
TYLER          CLEAR     85  71  63 NE6       29.96S HX  90
LONGVIEW       CLEAR     81  71  71 NE6       29.97R
MARSHALL       CLEAR     81  74  78 CALM      30.00S
ATHENS         CLEAR     84  70  61 CALM      29.95S
JACKSONVILLE   CLEAR     85  69  59 CALM      29.99S
HENDERSON      CLEAR     83  71  65 NE3       29.97S
NACOGDOCHES    CLEAR     84  73  70 E3        29.96R HX  91
LUFKIN         CLEAR     87  72  60 NE3       29.94F HX  93
$$

SUPPLEMENTAL OBSERVATIONS (CENTRAL)

CITY           SKY/WX    TMP DP  RH WIND       PRES   REMARKS
$$

SUPPLEMENTAL OBSERVATIONS (WEST)

CITY           SKY/WX    TMP DP  RH WIND       PRES   REMARKS
$$

SUPPLEMENTAL OBSERVATIONS (EAST)

CITY           SKY/WX    TMP DP  RH WIND       PRES   REMARKS
$$

SUPPLEMENTAL OBSERVATIONS ARE A COLLECTION OF AUTOMATED INSTRUMENTS
THAT ARE MAINTAINED BY A VARIETY OF FEDERAL AND STATE AGENCIES.
CERTAIN ELEMENTS...SUCH AS HUMIDITY VALUES AND SUSTAINED WIND
SPEEDS...MAY BE APPROXIMATED.